Location: Eastlake (historical)
(39.0077°N, 122.6678°W)
Time: 09:06:09
(UTC+00:00)

ADEOS - Pass Details

Date: 25 November 2020
Orbit: 792 x 795 km, 98.9° (Epoch: 25 January)

Event Time Altitude Azimuth Distance (km) Brightness Sun altitude
Rises 13:07:25 0° 9° (N) 3,305 6.8 -22.5°
Reaches altitude 10° 13:09:47 10° 6° (N) 2,371 6.0 -22.1°
Maximum altitude 13:14:55 60° 288° (WNW) 905 3.5 -21.1°
Drops below altitude 10° 13:20:02 10° 209° (SSW) 2,354 5.8 -20.1°
Sets 13:22:22 0° 205° (SSW) 3,279 6.6 -19.7°
